Погода в Диброве

Украина / Житомирская область     50°52′45″N   28°48′19″E
темп.,
°C
ветер,
м/с
пор.,
м/с
влажн.,
%
обл.,
%
осадки,
мм/ч
давл.,
гПа
погр.,
м
26 февраля, пт
пт2623:00+5з369999 0.0 1027127
02:00+3зюз479483 0.0 1026111
05:00+2зюз47910 0.0 1024136
08:00+3зюз510920 0.0 1022215
11:00+7з69870 0.0 1022348
14:00+11з610811 0.0 1020553
17:00+8з4109065 0.0 1019306
20:00+7з5119382 0.0 1019416
27 февраля, сб
сб2723:00+6зсз41084100 0.0 1018471
02:00+4зсз41086100 0.0 1019473
05:00+2зсз5119096 0.0 1018566
08:00+3зсз5118098 0.1 1018667
11:00+4зсз51082100 0.0 1018867
14:00+3зсз61094100 0.1 1019667
17:00+3сз61093100 0.3 1019765
20:00+2ссз61094100 0.5 1021672
28 февраля, вс
вс2823:00+1ссз5109197 0.1 1022662
02:00+1ссз599596 0.3 1024580
05:000ссз499499 0.1 1024584
08:000сз598798 0.1 1026665
11:00+1сз5778100 0.1 1026876
14:00+2сз6871100 0.1 10261026
17:00+2зсз51074100 0.0 1024677
20:00+2зсз61197100 0.6 1024608
1 марта, пн
пн123:00+3ссз51098100 2.1 1023554
02:00+2с4898100 3.1 1024366
05:00+2ссв5997100 0.3 1026520
08:00+2с4791100 0.3 1028481
11:00+2ссз3583100 0.1 1030551
14:00+3сз4678100 0.1 1030734
17:00+3сз477977 0.0 1030725
20:00+3з498488 0.0 1030347
2 марта, вт
вт223:00+2зсз4993100 0.0 1030262
02:00+2з51094100 0.0 1029275
05:00+2з61389100 0.0 1028353
08:00+3зсз61584100 0.0 1027463
11:00+6зсз71270100 0.0 1026745
14:00+8сз7116766 0.0 1025824
17:00+7сз512758 0.0 1025762
20:00+5сз514844 0.0 1026465